User: anonymous   Login
Location: San Martino di Castrozza
(46.2667°N, 11.8000°E)
Time: 08:06:48
(UTC+00:00)
Language:

Cosmos 1953 - Orbit

View from above orbital plane
View from above orbital plane
View from above satellite
View from above satellite

Ground track
Ground track

The orbit data is extracted from the following two-line orbital elements,

1 19210U 88050A   21164.80305926  .00000176  00000-0  99895-5 0  9990
2 19210  82.5186  59.0069 0012230 328.9713  31.0791 15.06287909776058
Epoch (UTC): 13 June 2021 19:16:24
Eccentricity: 0.0012230
inclination: 82.5186°
perigee height: 539 km
apogee height: 556 km
right ascension of ascending node: 59.0069°
argument of perigee: 328.9713°
revolutions per day: 15.06287909
mean anomaly at epoch: 31.0791°
orbit number at epoch: 77605

The dashed part of the orbit path shows where the satellite is in the earth's shadow,  

DLR